TimeEDT,TemperatureF,Dew PointF,Humidity,Sea Level PressureIn,VisibilityMPH,Wind Direction,Wind SpeedMPH,Gust SpeedMPH,PrecipitationIn,Events,Conditions,WindDirDegrees,DateUTC
12:10 AM,33.8,33.8,100,29.97,5.0,NNE,8.1,-,N/A,,Overcast,20,2013-03-17 04:10:00
12:30 AM,33.8,33.8,100,29.96,5.0,NNE,8.1,-,N/A,,Overcast,30,2013-03-17 04:30:00
12:50 AM,33.8,33.8,100,29.97,5.0,NNE,6.9,-,N/A,,Overcast,20,2013-03-17 04:50:00
1:10 AM,33.8,33.8,100,29.97,5.0,NNE,5.8,-,N/A,,Overcast,20,2013-03-17 05:10:00
1:30 AM,33.8,33.8,100,29.98,5.0,NNE,4.6,-,N/A,,Overcast,20,2013-03-17 05:30:00
1:50 AM,33.8,33.8,100,29.98,5.0,NNE,4.6,-,N/A,,Overcast,30,2013-03-17 05:50:00
2:10 AM,33.8,33.8,100,29.99,5.0,NE,5.8,-,N/A,,Overcast,50,2013-03-17 06:10:00
2:30 AM,33.8,33.8,100,29.99,5.0,NE,4.6,-,N/A,,Overcast,40,2013-03-17 06:30:00
2:50 AM,33.8,33.8,100,30.00,7.0,Calm,Calm,-,N/A,,Overcast,0,2013-03-17 06:50:00
3:10 AM,33.8,33.8,100,30.01,7.0,Calm,Calm,-,N/A,,Overcast,0,2013-03-17 07:10:00
3:30 AM,33.8,33.8,100,30.01,10.0,NNE,3.5,-,N/A,,Overcast,20,2013-03-17 07:30:00
3:50 AM,33.8,33.8,100,30.01,7.0,North,3.5,-,N/A,,Overcast,360,2013-03-17 07:50:00
4:10 AM,33.8,33.8,100,30.00,7.0,North,4.6,-,N/A,,Overcast,10,2013-03-17 08:10:00
4:30 AM,33.8,33.8,100,30.00,7.0,North,4.6,-,N/A,,Overcast,10,2013-03-17 08:30:00
4:50 AM,33.8,32.0,93,30.02,10.0,North,3.5,-,N/A,,Overcast,10,2013-03-17 08:50:00
5:10 AM,33.8,33.8,100,30.02,10.0,NE,6.9,-,N/A,,Overcast,40,2013-03-17 09:10:00
5:30 AM,33.8,32.0,93,30.02,10.0,NNE,6.9,-,N/A,,Overcast,30,2013-03-17 09:30:00
5:50 AM,33.8,32.0,93,30.03,10.0,NNE,5.8,-,N/A,,Overcast,30,2013-03-17 09:50:00
6:10 AM,33.8,32.0,93,30.05,10.0,NNE,3.5,-,N/A,,Overcast,30,2013-03-17 10:10:00
6:30 AM,33.8,32.0,93,30.06,10.0,Calm,Calm,-,N/A,,Overcast,0,2013-03-17 10:30:00
6:45 AM,33.8,32.0,93,30.08,10.0,Calm,Calm,-,N/A,,Overcast,0,2013-03-17 10:45:00
6:50 AM,35.6,32.0,87,30.09,10.0,Calm,Calm,-,N/A,,Overcast,0,2013-03-17 10:50:00
7:45 AM,35.6,32.0,87,30.11,10.0,Variable,4.6,-,N/A,,Overcast,0,2013-03-17 11:45:00
8:47 AM,35.6,32.0,87,30.15,10.0,Variable,4.6,-,N/A,,Overcast,0,2013-03-17 12:47:00
9:45 AM,35.6,32.0,87,30.17,10.0,NNE,5.8,-,N/A,,Overcast,30,2013-03-17 13:45:00
10:47 AM,35.6,30.2,81,30.19,10.0,NNE,10.4,-,N/A,,Overcast,30,2013-03-17 14:47:00
11:47 AM,37.4,28.4,70,30.19,10.0,North,9.2,-,N/A,,Overcast,10,2013-03-17 15:47:00
12:45 PM,37.4,28.4,70,30.22,10.0,NNE,8.1,-,N/A,,Overcast,20,2013-03-17 16:45:00
1:45 PM,37.4,26.6,65,30.20,10.0,NNE,5.8,-,N/A,,Overcast,30,2013-03-17 17:45:00
2:50 PM,37.4,26.6,65,30.19,10.0,NNE,6.9,-,N/A,,Overcast,30,2013-03-17 18:50:00
3:45 PM,39.2,26.6,61,30.20,10.0,Calm,Calm,-,N/A,,Overcast,0,2013-03-17 19:45:00
5:45 PM,39.2,26.6,61,30.20,10.0,ENE,4.6,-,N/A,,Overcast,60,2013-03-17 21:45:00
6:50 PM,39.2,26.6,61,30.23,10.0,NE,4.6,-,N/A,,Mostly Cloudy,50,2013-03-17 22:50:00
7:50 PM,37.4,26.6,65,30.25,10.0,NE,5.8,-,N/A,,Clear,40,2013-03-17 23:50:00
8:55 PM,35.6,26.6,70,30.27,10.0,NNE,4.6,-,N/A,,Clear,30,2013-03-18 00:55:00
9:15 PM,35.6,26.6,70,30.27,10.0,NNE,3.5,-,N/A,,Clear,30,2013-03-18 01:15:00
9:35 PM,33.8,26.6,75,30.27,10.0,NE,3.5,-,N/A,,Clear,40,2013-03-18 01:35:00
9:55 PM,33.8,26.6,75,30.28,10.0,NE,4.6,-,N/A,,Clear,40,2013-03-18 01:55:00
10:15 PM,33.8,26.6,75,30.28,10.0,NNE,3.5,-,N/A,,Scattered Clouds,30,2013-03-18 02:15:00
10:35 PM,35.6,26.6,70,30.29,10.0,Calm,Calm,-,N/A,,Scattered Clouds,0,2013-03-18 02:35:00
10:55 PM,33.8,26.6,75,30.29,10.0,Calm,Calm,-,N/A,,Scattered Clouds,0,2013-03-18 02:55:00
11:15 PM,33.8,28.4,81,30.29,10.0,Calm,Calm,-,N/A,,Mostly Cloudy,0,2013-03-18 03:15:00
11:35 PM,33.8,26.6,75,30.29,10.0,ENE,3.5,-,N/A,,Mostly Cloudy,70,2013-03-18 03:35:00
11:55 PM,35.6,26.6,70,30.29,10.0,East,4.6,-,N/A,,Mostly Cloudy,90,2013-03-18 03:55:00